Weather History for Wroclaw Ii, Poland

Change the Weather History Date:

Friday, September 20, 2013

  Actual Average Record
Temperature  
Mean Temperature 51 °F -  
Max Temperature 59 °F 60 °F - ()
Min Temperature 43 °F 43 °F - ()
Degree Days  
Heating Degree Days 14    
Growing Degree Days 1 (Base 50)    
Moisture  
Dew Point 48 °F    
Average Humidity 83    
Maximum Humidity 96    
Minimum Humidity 53    
Precipitation  
Precipitation 0.01 in 0.06 in - ()
Sea Level Pressure  
Sea Level Pressure 29.93 in    
Wind  
Wind Speed 5 mph ()    
Max Wind Speed 9 mph    
Max Gust Speed -    
Visibility 7.9 miles    
Events Rain    
T = Trace of Precipitation, MM = Missing Value Source: Averaged Metar Reports

Daily Weather History Graph

Daily Weather History Graph

Search for Another Location

Airport:

Trip Planner

Search our weather history database for the weather conditions in past years. The results will help you decide how hot, cold, wet, or windy it might be!

Date:

Astronomy

Sep. 20, 2013 Rise Set
Actual Time 6:35 AM CEST 6:55 PM CEST
Civil Twilight 6:02 AM CEST 7:28 PM CEST
Nautical Twilight 5:23 AM CEST 8:07 PM CEST
Astronomical Twilight 4:41 AM CEST 8:48 PM CEST
Moon 7:04 PM CEST (9/20) 7:42 AM CEST (9/20)
Length of Visible Light 13h 25m
Length of Day
12h 19m
Full, 99% of the Moon is Illuminated
Sep 20
Full
Sep 27
Last Quarter
Oct 5
New
Oct 12
First Quarter
Oct 19
Full

Hourly Weather History & Observations

Time (CEST) Temp. Dew Point Humidity Pressure Visibility Wind Dir Wind Speed Gust Speed Precip Events Conditions
12:00 AM 50.0 °F 46.4 °F 87% 29.89 in - West 5.8 mph - N/A   Clear
12:30 AM 48.2 °F 46.4 °F 93% 29.89 in - WSW 6.9 mph - N/A   Clear
1:00 AM 48.2 °F 44.6 °F 87% 29.89 in - WSW 6.9 mph - N/A   Clear
1:30 AM 48.2 °F 44.6 °F 87% 29.92 in - WSW 5.8 mph - N/A   Clear
2:00 AM 48.2 °F 44.6 °F 87% 29.92 in - WSW 6.9 mph - N/A   Clear
2:30 AM 48.2 °F 44.6 °F 87% 29.92 in - West 6.9 mph - N/A   Clear
3:00 AM 48.2 °F 44.6 °F 87% 29.89 in - WSW 5.8 mph - N/A   Clear
3:30 AM 48.2 °F 44.6 °F 87% 29.89 in - WSW 4.6 mph - N/A   Clear
4:00 AM 46.4 °F 42.8 °F 87% 29.89 in - Variable 2.3 mph - N/A   Clear
4:30 AM 48.2 °F 44.6 °F 87% 29.89 in - SW 4.6 mph - N/A   Clear
5:00 AM 47 °F 45 °F 91% 29.92 in 31 mi West 4.5 mph - -   Mostly Cloudy
5:00 AM 48.2 °F 44.6 °F 87% 29.89 in - WSW 6.9 mph - N/A   Clear
5:30 AM 48.2 °F 44.6 °F 87% 29.89 in - WSW 6.9 mph - N/A   Clear
6:00 AM 48.2 °F 44.6 °F 87% 29.89 in - SW 6.9 mph - N/A   Clear
6:30 AM 48.2 °F 44.6 °F 87% 29.89 in - SW 8.1 mph - N/A   Clear
7:00 AM 48.2 °F 44.6 °F 87% 29.89 in - SW 6.9 mph - N/A   Clear
7:30 AM 48.2 °F 44.6 °F 87% 29.92 in - SW 6.9 mph - N/A   Clear
8:00 AM 49 °F 47 °F 90% 29.93 in 19 mi WSW 6.7 mph - -   Mostly Cloudy
8:00 AM 50.0 °F 46.4 °F 87% 29.92 in - SW 6.9 mph - N/A   Clear
8:30 AM 51.8 °F 46.4 °F 82% 29.92 in - SW 6.9 mph - N/A   Clear
9:00 AM 51.8 °F 46.4 °F 82% 29.92 in - SW 5.8 mph - N/A   Clear
9:30 AM 53.6 °F 48.2 °F 82% 29.92 in - SW 5.8 mph - N/A   Clear
10:00 AM 55.4 °F 48.2 °F 77% 29.92 in 6.2 mi SW 5.8 mph - N/A   Mostly Cloudy
10:30 AM 55.4 °F 48.2 °F 77% 29.92 in 6.2 mi SW 3.5 mph - N/A   Partly Cloudy
11:00 AM 56 °F 49 °F 69% 29.93 in 19 mi SW 8.9 mph - -   Partly Cloudy
11:00 AM 57.2 °F 48.2 °F 72% 29.92 in - WSW 6.9 mph - N/A   Clear
11:30 AM 57.2 °F 48.2 °F 72% 29.92 in 6.2 mi SW 6.9 mph - N/A   Partly Cloudy
12:00 PM 59.0 °F 46.4 °F 63% 29.92 in 6.2 mi WSW 5.8 mph - N/A   Partly Cloudy
12:30 PM 59.0 °F 46.4 °F 63% 29.92 in 6.2 mi SW 5.8 mph - N/A   Partly Cloudy
1:00 PM 59.0 °F 48.2 °F 67% 29.92 in 6.2 mi SW 5.8 mph - N/A   Partly Cloudy
1:30 PM 59.0 °F 48.2 °F 67% 29.92 in 6.2 mi WSW 4.6 mph - N/A   Partly Cloudy
2:00 PM 59 °F 47 °F 53% 29.92 in 22 mi SW 4.5 mph - -   Partly Cloudy
2:00 PM 60.8 °F 46.4 °F 59% 29.92 in 6.2 mi SW 4.6 mph - N/A   Scattered Clouds
2:30 PM 60.8 °F 46.4 °F 59% 29.92 in 6.2 mi West 3.5 mph - N/A   Mostly Cloudy
3:00 PM 59.0 °F 48.2 °F 67% 29.92 in 6.2 mi Variable 2.3 mph - N/A Rain Light Rain
3:30 PM 59.0 °F 53.6 °F 82% 29.92 in 6.2 mi Calm Calm - N/A Rain Light Rain
4:00 PM 59.0 °F 51.8 °F 77% 29.92 in 6.2 mi WSW 1.2 mph - N/A   Scattered Clouds
4:30 PM 59.0 °F 53.6 °F 82% 29.92 in 6.2 mi SW 1.2 mph - N/A   Scattered Clouds
5:00 PM 57 °F 52 °F 77% 29.94 in 19 mi West 4.5 mph - -   Partly Cloudy
5:00 PM 57.2 °F 51.8 °F 82% 29.95 in 6.2 mi West 2.3 mph - N/A   Mostly Cloudy
5:30 PM 57.2 °F 50.0 °F 77% 29.95 in 6.2 mi NW 5.8 mph - N/A   Mostly Cloudy
6:00 PM 55.4 °F 50.0 °F 82% 29.95 in 6.2 mi NW 4.6 mph - N/A Rain Light Rain
6:30 PM 55.4 °F 51.8 °F 88% 29.95 in 6.2 mi WNW 5.8 mph - N/A Rain Light Rain Showers
7:00 PM 53.6 °F 51.8 °F 94% 29.98 in 6.2 mi WNW 2.3 mph - N/A Rain Light Rain
7:30 PM 53.6 °F 51.8 °F 94% 29.98 in 6.2 mi Variable 1.2 mph - N/A Rain Light Rain
8:00 PM 53 °F 51 °F 92% 29.99 in 16 mi Calm Calm - - Rain Light Rain
8:00 PM 53.6 °F 51.8 °F 94% 29.98 in 6.2 mi Variable 1.2 mph - N/A   Mostly Cloudy
8:30 PM 53.6 °F 51.8 °F 94% 29.98 in 6.2 mi SW 1.2 mph - N/A   Mostly Cloudy
9:00 PM 53.6 °F 51.8 °F 94% 29.98 in 6.2 mi Variable 1.2 mph - N/A Rain Light Rain
9:30 PM 53.6 °F 51.8 °F 94% 29.98 in 6.2 mi Variable 1.2 mph - N/A   Mostly Cloudy
10:00 PM 53.6 °F 51.8 °F 94% 29.98 in 6.2 mi Variable 1.2 mph - N/A Rain Light Rain
10:30 PM 53.6 °F 51.8 °F 94% 29.98 in 6.2 mi Calm Calm - N/A Rain Light Rain
11:00 PM 53 °F 52 °F 96% 30.01 in 12 mi SW 2.2 mph - - Rain Light Rain
11:00 PM 53.6 °F 51.8 °F 94% 30.01 in 6.2 mi WSW 1.2 mph - N/A   Mostly Cloudy
11:30 PM 53.6 °F 51.8 °F 94% 30.01 in 6.2 mi West 4.6 mph - N/A   Mostly Cloudy